Tracking 23099 objects as of 13-May-2021
HD Live streaming from Space Station
objects crossing your sky now

FLOCK 4P 6

Track FLOCK 4P 6 now!
10-day predictions
FLOCK 4P 6 is classified as:


NORAD ID: 44817
Int'l Code: 2019-081P
Perigee: 501.2 km
Apogee: 516.7 km
Inclination: 97.5 °
Period: 94.7 minutes
Semi major axis: 6879 km
RCS: Unknown
Launch date: November 27, 2019
Source: United States (US)
Launch site: SRIHARIKOTA (SRI)
aabbcc
Your satellite tracking list
Your tracking list is empty




NASA's NSSDC Master Catalog

Two Line Element Set (TLE):
1 44817U 19081P   21132.72978637  .00003012  00000-0  13742-3 0  9997
2 44817  97.4514 197.1160 0011287 172.8458 187.2941 15.21342292 80916
Source of the keplerian elements: AFSPC